Starlink 35621

operational
NORAD ID: 66156 Int'l Des: 2025-240 Owner: SPXS Country: US Constellation: starlink
LEOCIRCULAR

Starlink 35621について

説明を読み込み中...

リアルタイム位置

3D地球を読み込み中...

次回通過

高度履歴

Altitude vs Time

uPlot chart will show altitude changes over time

軌道要素

1 66156U 25240L 25350.60032734 .00025451 00000-0 86775-3 0 9990
2 66156 53.1624 88.9978 0001317 81.3574 278.7576 15.30227361 9265
Epoch: Dec 16, 2025 • Age: 19 hours

現在のステータス

高度 476.3 km
速度 7.63 km/s
衛星直下点 30.50°N, 5.47°E
打ち上げ日 Oct 25, 2025
運用期間 0.1 years
タイプ internet

技術仕様

分類 Payload
質量 575.00 kg
乾燥質量 530.00 kg
総質量 575.00 kg
長さ 0.30 m
直径 4.10 m
スパン 29.00 m
形状 Box + pan
製造者 SPXS
バスタイプ Starlink V2MO
フェーズステータス In Orbit
所有者/国 SPXS/US

大規模コンステレーション

Loading constellations...